Regional Weather Roundup
Issued by NWS

Home | Current Version | Previous Version | Text Only | Print | Product List | Glossary Off
Versions: 1 2 3 4 5 6 7 8 9 10 11 12 13 14 15 16 17 18 19 20 21 22 23 24 25 26 27 28 29 30 31 32 33 34 35 36 37 38 39 40 41 42 43 44 45 46 47 48 49 50

000
ASUS43 KBIS 010102
RWRND

NORTH DAKOTA REGIONAL WEATHER ROUNDUP
NATIONAL WEATHER SERVICE BISMARCK ND
800 PM CDT FRI SEP 30 2016

NOTE: "FAIR" INDICATES FEW OR NO CLOUDS BELOW 12,000 FEET WITH NO
SIGNIFICANT WEATHER AND/OR OBSTRUCTIONS TO VISIBILITY.


NDZ001>003-009>011-017-010200-
NORTHWEST NORTH DAKOTA

CITY           SKY/WX    TMP DP  RH WIND       PRES   REMARKS
WILLISTON      CLOUDY    61  52  72 CALM      30.00F
MINOT          CLOUDY    63  51  65 SE9       30.06S
MINOT AFB      CLOUDY    61  52  71 SE12      30.05R
$$

NDZ018>021-031>035-040>046-010200-
SOUTHWEST NORTH DAKOTA

CITY           SKY/WX    TMP DP  RH WIND       PRES   REMARKS
BISMARCK       PTCLDY    64  46  52 SE12      30.07R
DICKINSON      CLEAR     60  46  59 SE10      30.00F
GARRISON         N/A     60  52  74 E6        30.05F
HETTINGER ARPT PTCLDY    62  47  57 E7        30.03S
$$

NDZ004>008-012>016-024-026-027-054-010200-
NORTHEAST NORTH DAKOTA

CITY           SKY/WX    TMP DP  RH WIND       PRES   REMARKS
GRAND FORKS    CLOUDY    61  50  67 SE9       30.18F
GRND FRKS AFB  PTCLDY    60  50  68 SE8       30.18F
DEVILS LAKE    MOCLDY    61  51  70 SE8       30.15F
$$

NDZ022-023-025-028>030-036>039-047>053-010200-
SOUTHEAST NORTH DAKOTA

CITY           SKY/WX    TMP DP  RH WIND       PRES   REMARKS
FARGO          CLEAR     62  49  62 SE8       30.19F
JAMESTOWN      PTCLDY    59  48  67 SE8       30.14S
$$





USA.gov is the U.S. government's official web portal to all federal, state and local government web resources and services.